FENGYUN 1C DEB, 31507

Orbit data source: Space-Track

FENGYUN 1C DEB, 31507 is space debris in SSO originally from a launch on Mon, 10 May 1999 UTC launched from the Taiyaun Space Center, China (TSC). Fengyun 1C debris stems from the Chinese weather satellite Fengyun-1C, which was intentionally destroyed by a Chinese anti-satellite missile in 2007. This event dramatically increased the amount of space debris, with thousands of trackable fragments posing hazards to satellites and human spaceflight. The Fengyun 1C debris cloud has become a focal point in discussions about space sustainability and the need for international regulations to prevent the creation of new debris.

Loading next visibility...
Identifier
31507, 1999-025BWW
Orbit
SSO
Country
Flag of CNCN / PRC
Related business
Manufacturer
Unknown
Mission
Spacecraft
Bus & Motor
Unknown
Mass
Unknown
Launch date (UTC)
1999-05-10 (27 years ago)
Launch vehicle
Unknown
Launch site
Taiyaun Space Center, China (TSC)
Object type
Payload
Rocket body
Debris
Shape & HBR
Unknown shape, 0.1 m
Radar Cross Section
Medium (>0.1 m² and <1 m²)

Expand to show TLE details & history
Last TLE update: 9 hours ago

TLE from 9 hours ago
0 FENGYUN 1C DEB
1 31507U 99025BWW 26255.34380013  .00000908  00000-0  21280-3 0  9996
2 31507  98.1672 285.8426 0113918 314.4331 109.1450 14.53139047 19904
Epoch: 2026-09-12T08:15Z
TLE epoch observation values (Epoch: 2026-09-12T08:15:04.331Z)
Latitude
63.68887°
Longitude
153.9405°
Altitude
753.69 km
Speed
7.469 km/s
True Right ascension
17h 56m 15s
True Declination
63° 33' 07"
Sunlit
Object was in daylight at epoch
Visualization orbit readout
Latitude
Unknown
Longitude
Unknown
Altitude
Unknown
Speed
Unknown
Apparent Right ascension
Unknown
Apparent Declination
Unknown
Sunlit
N/A
Visualization observer readout
Local Sidereal Time
09:45:11
Azimuth
Unknown
Elevation
Unknown
Doppler factor
Unknown
Orbital elements
Apogee altitude
793.278 km
Perigee altitude
631.728 km
Semi-major axis
7,090.64 km
Eccentricity
0.01139
Inclination
98.1672°
RAAN
285.8426°
Arg. of periapsis
314.4331°
True anomaly
110.37238°
Mean anomaly
109.145°
Eccentric anomaly
109.75927°
Mean motion
3.63509 °/min
Orbital period
99.03 mins
BSTAR
0.0002128
Loading maneuver chart data...
Computing Atmospheric mass density...
Loading historical data...
Loading historical data...
Loading historical data...
Loading historical data...
Loading historical data...
Loading historical data...
Loading historical data...

Documentation

Showing up to 5 results
|